Weather History for Cahokia, IL

Change the Weather History Date:

Friday, March 29, 2013

  Actual Average Record
Temperature  
Mean Temperature 52 °F -  
Max Temperature 62 °F 74 °F 86 °F (1963)
Min Temperature 43 °F 52 °F 23 °F (1964)
Degree Days  
Heating Degree Days 13    
Growing Degree Days 2 (Base 50)    
Moisture  
Dew Point 41 °F    
Average Humidity 69    
Maximum Humidity 89    
Minimum Humidity 51    
Precipitation  
Precipitation 0.00 in - - ()
Sea Level Pressure  
Sea Level Pressure 30.22 in    
Wind  
Wind Speed 7 mph (ESE)    
Max Wind Speed 12 mph    
Max Gust Speed -    
Visibility 10 miles    
Events      
Averages and records for this station are not official NWS values.
T = Trace of Precipitation, MM = Missing Value Source: NWS Daily Summary

Daily Weather History Graph

Daily Weather History Graph

Search for Another Location

Airport:

Trip Planner

Search our weather history database for the weather conditions in past years. The results will help you decide how hot, cold, wet, or windy it might be!

Date:

Astronomy

Mar. 29, 2013 Rise Set
Actual Time 6:49 AM CDT 7:21 PM CDT
Civil Twilight 6:23 AM CDT 7:48 PM CDT
Nautical Twilight 5:51 AM CDT 8:19 PM CDT
Astronomical Twilight 5:19 AM CDT 8:51 PM CDT
Moon 10:19 PM CDT (3/29) 8:00 AM CDT (3/29)
Length of Visible Light 13h 25m
Length of Day
12h 31m
Waning Gibbous, 93% of the Moon is Illuminated
Mar 29
Waning Gibbous
Apr 2
Last Quarter
Apr 10
New
Apr 18
First Quarter
Apr 25
Full

Hourly Weather History & Observations

Time (CDT) Temp. Windchill Dew Point Humidity Pressure Visibility Wind Dir Wind Speed Gust Speed Precip Events Conditions
12:53 AM 48.9 °F - 37.0 °F 64% 30.27 in 10.0 mi South 4.6 mph - N/A   Overcast
1:53 AM 46.9 °F - 39.0 °F 74% 30.26 in 10.0 mi SE 9.2 mph - 0.00 in   Overcast
2:53 AM 46.0 °F 41.4 °F 37.9 °F 73% 30.23 in 10.0 mi SE 9.2 mph - N/A   Overcast
3:53 AM 45.0 °F 39.3 °F 39.0 °F 80% 30.22 in 10.0 mi SE 11.5 mph - N/A   Mostly Cloudy
4:53 AM 45.0 °F 43.5 °F 39.0 °F 80% 30.23 in 10.0 mi ESE 3.5 mph - N/A   Overcast
5:53 AM 44.1 °F 40.1 °F 37.9 °F 79% 30.22 in 10.0 mi SE 6.9 mph - N/A   Mostly Cloudy
6:53 AM 44.1 °F 39.5 °F 37.9 °F 79% 30.23 in 10.0 mi SE 8.1 mph - N/A   Overcast
7:53 AM 45.0 °F 41.8 °F 39.0 °F 80% 30.24 in 9.0 mi ESE 5.8 mph - N/A   Clear
8:53 AM 48.0 °F - 39.9 °F 74% 30.25 in 10.0 mi SE 11.5 mph - N/A   Clear
9:53 AM 51.1 °F - 42.1 °F 71% 30.25 in 10.0 mi ESE 6.9 mph - N/A   Clear
10:53 AM 53.1 °F - 43.0 °F 69% 30.25 in 10.0 mi East 5.8 mph - N/A   Clear
11:53 AM 57.0 °F - 43.0 °F 59% 30.24 in 10.0 mi East 5.8 mph - N/A   Partly Cloudy
12:53 PM 59.0 °F - 43.0 °F 55% 30.23 in 10.0 mi East 3.5 mph - N/A   Scattered Clouds
1:53 PM 60.1 °F - 43.0 °F 53% 30.22 in 10.0 mi NE 8.1 mph - N/A   Mostly Cloudy
2:53 PM 60.1 °F - 44.1 °F 55% 30.20 in 10.0 mi East 10.4 mph - N/A   Mostly Cloudy
3:53 PM 61.0 °F - 43.0 °F 52% 30.19 in 10.0 mi East 5.8 mph - N/A   Mostly Cloudy
4:53 PM 60.1 °F - 42.1 °F 51% 30.19 in 10.0 mi NE 11.5 mph - N/A   Mostly Cloudy
5:53 PM 57.9 °F - 42.1 °F 56% 30.19 in 10.0 mi ENE 6.9 mph - N/A   Scattered Clouds
6:53 PM 55.9 °F - 43.0 °F 62% 30.20 in 10.0 mi East 8.1 mph - N/A   Scattered Clouds
7:53 PM 53.1 °F - 42.1 °F 66% 30.20 in 10.0 mi East 3.5 mph - N/A   Clear
8:53 PM 51.1 °F - 42.1 °F 71% 30.21 in 10.0 mi Calm Calm - N/A   Clear
9:53 PM 46.0 °F - 41.0 °F 83% 30.23 in 9.0 mi Calm Calm - N/A   Clear
10:53 PM 43.0 °F - 39.9 °F 89% 30.22 in 7.0 mi Calm Calm - N/A   Clear
11:53 PM 43.0 °F - 39.9 °F 89% 30.22 in 7.0 mi Calm Calm - N/A   Clear